Flag for Switzerland Weather past 2 weeks in Altdorf, Uri, Switzerland

Now
62 °F

Overcast.


Feels Like: 62 °F
Forecast: 55 / 65 °F
Wind: 2 mph from North

Location: Altdorf

Current Time: Sep 3, 2015 at 3:19:48 PM

Latest Report: Sep 3, 2015 at 2:00 PM


Visibility: 9 mi

Pressure: 29.96 "Hg

Humidity: 72%

Dew point: 53 °F

Location of AltdorfLocation

Historic Weather in Altdorf — Graph

°F

Altdorf temperature yesterday

Maximum temperature yesterday: 67 °F (at 2:00 PM)
Minimum temperature yesterday: 58 °F (at 7:00 AM)
Average temperature yesterday: 62 °F

Past Weeks' High & Low Weather Summary

 TemperatureHumidityPressure
High86 °F (Aug 30, 5:00 PM)98% (Aug 25, 3:00 AM)30.28 "Hg (Aug 25, 3:00 AM)
Low50 °F (Aug 26, 7:00 AM)22% (Aug 31, 4:00 AM)29.67 "Hg (Aug 24, 8:00 AM)
Average66 °F70%30.01 "Hg
* Reported Aug 19 2:00 PM — Sep 3 2:00 PM, Altdorf, Weather by CustomWeather, © 2015

Note: Actual official high and low records may vary slightly from our data, if they occured in-between our weather recording intervals... More about our weather records

Advertising

Altdorf weather history for previous 24 hours

 ConditionsComfort  
Time TempWeatherWind HumidityBarometerVisibility
2:00 PM
Thu, Sep 3
62 °FOvercast.2 mph72%29.96 "Hg9 mi
1:00 PM61 °FCool.5 mph75%29.96 "HgN/A
12:00 PM62 °FCool.12 mph71%29.96 "HgN/A
11:00 AM62 °FOvercast.12 mph73%29.96 "Hg9 mi
10:00 AM62 °FCool.No wind83%29.96 "HgN/A
9:00 AM61 °FCool.2 mph85%29.95 "HgN/A
8:00 AM60 °FOvercast.2 mph90%29.96 "Hg9 mi
7:00 AM58 °FCool.2 mph94%29.95 "HgN/A
5:00 AM60 °FOvercast.No wind86%29.95 "Hg9 mi
4:00 AM59 °FCool.No wind92%29.96 "HgN/A
3:00 AM59 °FCool.No wind93%29.96 "HgN/A
2:00 AM60 °FOvercast.1 mph93%29.96 "Hg9 mi
1:00 AM60 °FCool.1 mph89%29.97 "HgN/A
12:00 AM61 °FCool.1 mph86%29.97 "HgN/A
10:00 PM
Wed, Sep 2
61 °FCool.3 mph86%29.97 "HgN/A
9:00 PM62 °FCool.5 mph84%29.97 "HgN/A
8:00 PM64 °FMild.2 mph78%29.97 "HgN/A
7:00 PM65 °FMild.2 mph74%29.96 "HgN/A
6:00 PM65 °FMild.2 mph72%29.96 "HgN/A
5:00 PM66 °FOvercast.10 mph68%29.95 "Hg9 mi
4:00 PM66 °FMild.12 mph68%29.95 "HgN/A
3:00 PM67 °FMild.12 mph68%29.95 "HgN/A
Weather by CustomWeather, © 2015

See weather overviewHow to use our weather pages